map of PSS home
Great Circle Mapper logo
PSS - Airport
Location
City:  Posadas, Argentina
ICAO / IATA:SARP / PSS

Details
Type:Airport (Aerodrome, Airfield)
Latitude:2723'09"S (-27.385838)
Longitude:5558'15"W (-55.970727)
Datum:WGS 1984
Elevation:430 ft (131 m)
Variation:14.08W (WMM2015 magnetic declination)
-0.17 annual change
Runways:1
Longest:7406 × 98 ft (2257 × 30 m), paved

Time
Time Zone:UTC-3
Local Time:

Weather
METAR:SARP 300500Z 20005KT 9999 SCT025 BKN100 19/18 Q1013
TAF:SARP 292300Z 3000/3024 16005KT 9999 BKN015 OVC100 TX28/3018Z TN18/3010Z
BECMG 3003/3005 00000KT 5000 BR NSC PROB40 3007/3010 0800 FG NSC
BECMG 3011/3013 14005KT 9999 SCT025

Related Locations
Nearby:
Farthest:HYN: 12264 mi / 19737 km
Huangyan [Luqiao], Zhejiang, CN

Find:

   beyond  
but within

Other Information
Maps:
NOTAMs:
Links:
Sources:

  
flag of Argentina   

Sectional Chart

Flight Planning
at skyvector.com

Satellite Image

Google Maps Satellite View

 

Copyright © 2004-2015 Karl L. Swartz. All rights reserved.
The Great Circle Mapper name and logo are trademarks of the Great Circle Mapper.
All other trademarks mentioned herein belong to their respective owners.
Please see credits for attibutions and further copyright information.

  Follow gcmap on Facebook Follow gcmap on Twitter Follow gcmap on Google+

hCard Microformat

Geo Microformat